Weather History for KTAN - July, 2013

Change the Weather History Date:

Monday, July 15, 2013

  Actual Average Record
Temperature  
Mean Temperature 82 °F -  
Max Temperature 93 °F 83 °F 93 °F (2013)
Min Temperature 70 °F 61 °F 45 °F (1986)
Cooling Degree Days 16    
Growing Degree Days 32 (Base 50)    
Moisture  
Dew Point 71 °F    
Average Humidity 87    
Maximum Humidity 97    
Minimum Humidity 47    
Precipitation  
Precipitation 0.00 in - - ()
Sea Level Pressure  
Sea Level Pressure 30.16 in    
Wind  
Wind Speed 1 mph (SSE)    
Max Wind Speed 7 mph    
Max Gust Speed -    
Visibility 4 miles    
Events Fog    
Averages and records for this station are not official NWS values.
T = Trace of Precipitation, MM = Missing Value Source: NWS Daily Summary

Daily Weather History Graph

Daily Weather History Graph

Search for Another Location

Airport or City:

Trip Planner

Search our weather history database for the weather conditions in past years. The results will help you decide how hot, cold, wet, or windy it might be!

Date:

Astronomy

Jul. 15, 2013 Rise Set
Actual Time 5:22 AM EDT 8:17 PM EDT
Civil Twilight 4:49 AM EDT 8:50 PM EDT
Nautical Twilight 4:07 AM EDT 9:32 PM EDT
Astronomical Twilight 3:18 AM EDT 10:21 PM EDT
Moon 12:46 PM EDT (7/15) 11:54 PM EDT (7/15)
Length of Visible Light 16h 01m
Length of Day
14h 55m
Waxing Crescent, 45% of the Moon is Illuminated
Jul 15
Waxing Crescent
Jul 15
First Quarter
Jul 22
Full
Jul 29
Last Quarter
Aug 6
New

Hourly Weather History & Observations

Time (EDT) Temp. Heat Index Dew Point Humidity Pressure Visibility Wind Dir Wind Speed Gust Speed Precip Events Conditions
12:05 AM 73.0 °F - 72.0 °F 96% 30.20 in 2.5 mi Calm Calm - N/A   Mostly Cloudy
12:12 AM 73.0 °F - 72.0 °F 96% 30.20 in 6.0 mi Calm Calm - N/A   Scattered Clouds
12:36 AM 72.0 °F - 71.1 °F 97% 30.19 in 1.5 mi Calm Calm - N/A   Mostly Cloudy
12:40 AM 73.0 °F - 71.1 °F 93% 30.19 in 0.8 mi Calm Calm - N/A   Mostly Cloudy
12:49 AM 73.4 °F - 71.6 °F 94% 30.19 in 1.5 mi Calm Calm - N/A   Mostly Cloudy
12:52 AM 73.0 °F - 71.1 °F 93% 30.19 in 3.0 mi Calm Calm - N/A   Overcast
1:29 AM 73.0 °F - 72.0 °F 96% 30.19 in 1.8 mi Calm Calm - N/A   Overcast
1:38 AM 73.0 °F - 72.0 °F 96% 30.18 in 3.0 mi Calm Calm - N/A   Mostly Cloudy
1:52 AM 72.0 °F - 71.1 °F 97% 30.18 in 3.0 mi Calm Calm - N/A   Scattered Clouds
1:54 AM 72.0 °F - 71.1 °F 97% 30.18 in 1.2 mi Calm Calm - N/A   Scattered Clouds
2:02 AM 72.0 °F - 70.0 °F 93% 30.18 in 0.5 mi Calm Calm - N/A Fog Fog
2:26 AM 71.1 °F - 70.0 °F 96% 30.18 in 0.5 mi Calm Calm - N/A Fog Fog
2:41 AM 71.1 °F - 70.0 °F 96% 30.18 in 1.0 mi Calm Calm - N/A   Mostly Cloudy
2:52 AM 72.0 °F - 70.0 °F 93% 30.18 in 1.5 mi Calm Calm - N/A   Mostly Cloudy
2:55 AM 72.0 °F - 71.1 °F 97% 30.18 in 3.0 mi Calm Calm - N/A   Scattered Clouds
3:20 AM 71.1 °F - 70.0 °F 96% 30.18 in 1.8 mi Calm Calm - N/A   Partly Cloudy
3:23 AM 71.1 °F - 70.0 °F 96% 30.18 in 0.8 mi Calm Calm - N/A   Scattered Clouds
3:52 AM 70.0 °F - 69.1 °F 97% 30.18 in 0.8 mi Calm Calm - N/A   Mostly Cloudy
3:59 AM 70.0 °F - 69.1 °F 97% 30.18 in 1.2 mi Calm Calm - N/A   Mostly Cloudy
4:07 AM 71.1 °F - 70.0 °F 96% 30.18 in 2.0 mi Calm Calm - N/A   Mostly Cloudy
4:17 AM 71.1 °F - 70.0 °F 96% 30.18 in 5.0 mi Calm Calm - N/A   Overcast
4:52 AM 72.0 °F - 70.0 °F 93% 30.18 in 8.0 mi Calm Calm - N/A   Overcast
5:18 AM 71.1 °F - 69.1 °F 93% 30.18 in 1.5 mi Calm Calm - N/A   Mostly Cloudy
5:25 AM 71.1 °F - 69.1 °F 93% 30.18 in 1.2 mi Calm Calm - N/A   Mostly Cloudy
5:37 AM 71.1 °F - 70.0 °F 96% 30.18 in 0.8 mi Calm Calm - N/A   Mostly Cloudy
5:41 AM 71.1 °F - 70.0 °F 96% 30.18 in 1.8 mi Calm Calm - N/A   Overcast
5:43 AM 71.1 °F - 70.0 °F 96% 30.18 in 3.0 mi Calm Calm - N/A   Overcast
5:47 AM 71.6 °F - 69.8 °F 94% 30.18 in 1.8 mi Calm Calm - N/A   Overcast
5:52 AM 72.0 °F - 71.1 °F 97% 30.18 in 1.8 mi Calm Calm - N/A   Overcast
5:56 AM 73.0 °F - 71.1 °F 93% 30.18 in 3.0 mi Calm Calm - N/A   Overcast
6:52 AM 75.9 °F - 73.9 °F 94% 30.19 in 7.0 mi Calm Calm - N/A   Overcast
7:52 AM 79.0 °F - 73.9 °F 84% 30.19 in 10.0 mi Calm Calm - N/A   Clear
8:52 AM 82.9 °F 89.4 °F 73.9 °F 74% 30.18 in 10.0 mi NNW 3.5 mph - N/A   Clear
9:52 AM 86.0 °F 93.8 °F 73.9 °F 67% 30.17 in 10.0 mi Calm Calm - N/A   Clear
10:52 AM 87.1 °F 93.6 °F 72.0 °F 61% 30.17 in 10.0 mi North - - N/A   Partly Cloudy
11:52 AM 89.1 °F 96.0 °F 72.0 °F 57% 30.15 in 10.0 mi Variable 4.6 mph - N/A   Scattered Clouds
12:52 PM 90.0 °F 95.4 °F 70.0 °F 52% 30.14 in 10.0 mi West 3.5 mph - N/A   Mostly Cloudy
1:52 PM 91.0 °F 96.6 °F 70.0 °F 50% 30.13 in 10.0 mi Calm Calm - N/A   Scattered Clouds
2:52 PM 93.0 °F 99.0 °F 70.0 °F 47% 30.12 in 10.0 mi Variable 3.5 mph - N/A   Mostly Cloudy
3:52 PM 91.0 °F 98.2 °F 72.0 °F 53% 30.10 in 10.0 mi East 5.8 mph - N/A   Mostly Cloudy
4:52 PM 89.1 °F 99.1 °F 75.0 °F 63% 30.10 in 10.0 mi SSE 6.9 mph - N/A   Scattered Clouds
5:52 PM 86.0 °F 93.8 °F 73.9 °F 67% 30.09 in 10.0 mi SSE 5.8 mph - N/A   Mostly Cloudy
6:52 PM 84.9 °F 92.1 °F 73.9 °F 69% 30.10 in 10.0 mi SE 5.8 mph - N/A   Clear
7:52 PM 81.0 °F 86.2 °F 73.9 °F 79% 30.10 in 10.0 mi SSE 3.5 mph - N/A   Clear
8:52 PM 79.0 °F - 73.0 °F 82% 30.10 in 10.0 mi SSE 3.5 mph - N/A   Clear
9:52 PM 75.0 °F - 73.0 °F 94% 30.12 in 5.0 mi Calm Calm - N/A   Partly Cloudy
10:52 PM 73.0 °F - 71.1 °F 93% 30.12 in 4.0 mi Calm Calm - N/A   Clear
11:10 PM 73.0 °F - 71.1 °F 93% 30.11 in 2.5 mi Calm Calm - N/A   Clear
11:21 PM 73.0 °F - 71.1 °F 93% 30.11 in 1.0 mi Calm Calm - N/A   Clear
11:30 PM 72.0 °F - 71.1 °F 97% 30.11 in 0.5 mi Calm Calm - N/A Fog Fog
11:44 PM 72.0 °F - 70.0 °F 93% 30.11 in 1.0 mi Calm Calm - N/A   Clear
11:52 PM 72.0 °F - 70.0 °F 93% 30.11 in 0.5 mi Calm Calm - N/A Fog Fog